OEKRE LOLH-LOLH

Flight info

Callsign OEKRE
Flight time 0h 21m
Altitude 2500
Route TRAFFIC PATTERN TRAINING
Aircraft C172/L-S/L

Departure

Time 2026-05-05 19:21
Airport Hofkirchen Airfield (LOLH)

Arrival

Time 2026-05-05 19:42
Airport Hofkirchen Airfield (LOLH)
Time Latitude Longitude Altitude Speed Heading
2026-05-05 19:16 48.13960 14.33350 1182 ft 0 kts 259°
2026-05-05 19:18 48.13946 14.33338 1183 ft 8 kts 179°
2026-05-05 19:18 48.13891 14.33381 1183 ft 11 kts 79°
2026-05-05 19:18 48.13920 14.33631 1182 ft 28 kts 79°
2026-05-05 19:18 48.13934 14.33837 1180 ft 13 kts 82°
2026-05-05 19:19 48.13949 14.33869 1176 ft 3 kts 304°
2026-05-05 19:19 48.13940 14.33810 1177 ft 21 kts 257°
2026-05-05 19:19 48.13887 14.33378 1184 ft 62 kts 263°
2026-05-05 19:19 48.13784 14.32680 1336 ft 69 kts 256°
2026-05-05 19:20 48.13610 14.31985 1491 ft 75 kts 255°
2026-05-05 19:20 48.13201 14.31512 1618 ft 85 kts 208°
2026-05-05 19:20 48.12610 14.31153 1639 ft 100 kts 205°
2026-05-05 19:20 48.11890 14.30742 1677 ft 118 kts 201°
2026-05-05 19:21 48.11188 14.31113 1890 ft 114 kts 122°
2026-05-05 19:21 48.11029 14.32314 1952 ft 121 kts 82°
2026-05-05 19:21 48.11122 14.33639 1917 ft 129 kts 84°
2026-05-05 19:21 48.11197 14.34989 1799 ft 130 kts 83°
2026-05-05 19:22 48.11292 14.36263 1841 ft 122 kts 82°
2026-05-05 19:22 48.11408 14.37409 1789 ft 98 kts 62°
2026-05-05 19:22 48.11873 14.37973 1654 ft 81 kts 10°
2026-05-05 19:22 48.12379 14.38020 1597 ft 72 kts 350°
2026-05-05 19:23 48.12908 14.37942 1560 ft 74 kts 334°
2026-05-05 19:23 48.13172 14.37391 1605 ft 67 kts 269°
2026-05-05 19:23 48.13331 14.36729 1564 ft 73 kts 312°
2026-05-05 19:23 48.13633 14.36128 1538 ft 75 kts 296°
2026-05-05 19:24 48.13847 14.35416 1437 ft 75 kts 294°
2026-05-05 19:24 48.13992 14.34665 1330 ft 76 kts 275°
2026-05-05 19:24 48.13939 14.33898 1219 ft 69 kts 268°
2026-05-05 19:24 48.13851 14.33235 1230 ft 67 kts 265°
2026-05-05 19:25 48.13782 14.32507 1356 ft 77 kts 268°
2026-05-05 19:25 48.13694 14.31666 1457 ft 86 kts 250°
2026-05-05 19:25 48.13211 14.31292 1657 ft 87 kts 175°
2026-05-05 19:25 48.12587 14.31544 1602 ft 99 kts 180°
2026-05-05 19:26 48.11914 14.31631 1753 ft 96 kts 148°
2026-05-05 19:26 48.11587 14.32534 1825 ft 113 kts 104°
2026-05-05 19:26 48.11505 14.33736 1838 ft 120 kts 93°
2026-05-05 19:26 48.11522 14.34948 1849 ft 121 kts 86°
2026-05-05 19:27 48.11552 14.36189 1953 ft 116 kts 89°
2026-05-05 19:27 48.11551 14.37337 1978 ft 101 kts 88°
2026-05-05 19:27 48.11761 14.38155 1921 ft 76 kts 29°
2026-05-05 19:27 48.12244 14.38371 1792 ft 77 kts 349°
2026-05-05 19:28 48.12775 14.38228 1814 ft 77 kts 340°
2026-05-05 19:28 48.13308 14.38055 1817 ft 77 kts 336°
2026-05-05 19:28 48.13645 14.37536 1793 ft 72 kts 288°
2026-05-05 19:28 48.13908 14.36863 1740 ft 77 kts 296°
2026-05-05 19:29 48.14060 14.36073 1638 ft 83 kts 278°
2026-05-05 19:29 48.14072 14.35212 1421 ft 81 kts 269°
2026-05-05 19:29 48.14003 14.34411 1246 ft 76 kts 264°
2026-05-05 19:29 48.13929 14.33727 1180 ft 59 kts 261°
2026-05-05 19:30 48.13843 14.33054 1296 ft 68 kts 263°
2026-05-05 19:30 48.13773 14.32302 1422 ft 77 kts 269°
2026-05-05 19:30 48.13793 14.31535 1624 ft 75 kts 272°
2026-05-05 19:30 48.13869 14.30649 1649 ft 91 kts 278°
2026-05-05 19:31 48.13911 14.29673 1734 ft 98 kts 261°
2026-05-05 19:31 48.13472 14.28955 1948 ft 103 kts 197°
2026-05-05 19:31 48.12752 14.29037 1978 ft 109 kts 170°
2026-05-05 19:31 48.12016 14.29282 2017 ft 108 kts 173°
2026-05-05 19:32 48.11400 14.29828 2046 ft 105 kts 121°
2026-05-05 19:32 48.11263 14.30855 2054 ft 99 kts 86°
2026-05-05 19:32 48.11345 14.31887 2070 ft 100 kts 81°
2026-05-05 19:32 48.11395 14.32974 2091 ft 110 kts 84°
2026-05-05 19:33 48.11421 14.34127 2127 ft 114 kts 85°
2026-05-05 19:33 48.11439 14.35312 2187 ft 114 kts 89°
2026-05-05 19:33 48.11384 14.36513 2179 ft 116 kts 90°
2026-05-05 19:33 48.11516 14.37581 2094 ft 95 kts 50°
2026-05-05 19:34 48.11973 14.38185 1954 ft 84 kts
2026-05-05 19:34 48.12526 14.38150 1885 ft 82 kts 344°
2026-05-05 19:34 48.13101 14.37998 1898 ft 84 kts 339°
2026-05-05 19:35 48.13892 14.37028 1869 ft 82 kts 264°
2026-05-05 19:35 48.13940 14.36164 1685 ft 83 kts 284°
2026-05-05 19:35 48.14032 14.35294 1411 ft 86 kts 278°
2026-05-05 19:35 48.14004 14.34459 1255 ft 75 kts 270°
2026-05-05 19:36 48.13935 14.33764 1178 ft 59 kts 259°
2026-05-05 19:36 48.13834 14.33079 1237 ft 74 kts 262°
2026-05-05 19:36 48.13742 14.32319 1359 ft 80 kts 264°
2026-05-05 19:36 48.13721 14.31476 1498 ft 84 kts 274°
2026-05-05 19:37 48.13646 14.30652 1673 ft 79 kts 257°
2026-05-05 19:37 48.13550 14.29853 1878 ft 77 kts 265°
2026-05-05 19:37 48.13249 14.29226 2111 ft 87 kts 206°
2026-05-05 19:37 48.12622 14.29364 2252 ft 98 kts 170°
2026-05-05 19:38 48.11929 14.29721 2247 ft 113 kts 163°
2026-05-05 19:38 48.11363 14.30551 2329 ft 123 kts 112°
2026-05-05 19:38 48.11230 14.31806 2253 ft 121 kts 83°
2026-05-05 19:38 48.11245 14.33066 2179 ft 121 kts 87°
2026-05-05 19:39 48.11211 14.34296 2121 ft 116 kts 92°
2026-05-05 19:39 48.11153 14.35493 2025 ft 119 kts 94°
2026-05-05 19:39 48.11040 14.36692 1996 ft 115 kts 101°
2026-05-05 19:39 48.11048 14.37874 1993 ft 111 kts 71°
2026-05-05 19:40 48.11474 14.38706 1980 ft 97 kts 27°
2026-05-05 19:40 48.12042 14.39035 1870 ft 84 kts 356°
2026-05-05 19:40 48.12642 14.39036 1839 ft 84 kts 349°
2026-05-05 19:40 48.13215 14.38935 1832 ft 81 kts 340°
2026-05-05 19:41 48.13642 14.38494 1883 ft 75 kts 291°
2026-05-05 19:41 48.13772 14.37713 1821 ft 79 kts 291°
2026-05-05 19:41 48.13978 14.36950 1685 ft 75 kts 282°
2026-05-05 19:41 48.14076 14.36237 1491 ft 67 kts 278°
2026-05-05 19:42 48.14100 14.35540 1339 ft 64 kts 269°
2026-05-05 19:42 48.14040 14.34886 1281 ft 63 kts 268°
2026-05-05 19:42 48.13981 14.34234 1212 ft 64 kts 266°
2026-05-05 19:42 48.13926 14.33690 1179 ft 27 kts 257°
2026-05-05 19:43 48.13902 14.33493 1179 ft 14 kts 260°
2026-05-05 19:43 48.13887 14.33456 1179 ft 1 kts 196°
2026-05-05 19:43 48.13873 14.33457 1179 ft 3 kts 177°
2026-05-05 19:43 48.13860 14.33461 1176 ft 2 kts 138°
2026-05-05 19:44 48.13858 14.33477 1177 ft 0 kts 72°